NAVSTAR 73 (USA 260)    
1 40534U 15013A   19265.07227206 -.00000002  00000-0  00000+0 0  9997
2 40534  54.4340 305.9480 0038900   3.6717 356.4200  2.00563720 32911
DELTA 4 R/B             
1 40535U 15013B   19265.15191296 -.00000012  00000-0  00000-0 0  9998
2 40535  54.1327 310.5993 0028221  18.1305 342.0351  1.92975098 31680